Emporia, Virginia, United States (23847)
Lat: 36.69N, Lon: 77.54W
Wx Zone: VAZ087
Local Info
Past Weather Observations for Saturday, July 23, 2016

NOTE: This archive is for the closest National Weather Service station to Emporia. Information may differ from the station used for current weather conditions.

Click here for Long-term Archive

Time Weather Temperature Dewpoint Humidity Pressure Winds Precip Visibility
23:55
Clear
77°F / 25°C 75°F / 24°C 94% 30.01 in
(1016 mb)
Calm - 7SM
23:35
Clear
75°F / 24°C 73°F / 23°C 94% 30.01 in
(1016 mb)
Calm - 7SM
23:15
Clear
73°F / 23°C 73°F / 23°C 100% 30.01 in
(1016 mb)
Calm - 7SM
22:55
Clear
75°F / 24°C 73°F / 23°C 94% 29.98 in
(1015 mb)
Calm - 7SM
22:35
Clear
77°F / 25°C 75°F / 24°C 94% 29.98 in
(1015 mb)
Calm - 10SM
22:15
Clear
79°F / 26°C 75°F / 24°C 89% 29.98 in
(1015 mb)
Calm - 10SM
21:55
Clear
79°F / 26°C 75°F / 24°C 89% 29.98 in
(1015 mb)
Calm - 10SM
21:35
Clear
79°F / 26°C 75°F / 24°C 89% 29.98 in
(1015 mb)
Calm - 10SM
21:15
Clear
77°F / 25°C 73°F / 23°C 89% 29.98 in
(1015 mb)
Calm - 10SM
20:55
Clear
79°F / 26°C 73°F / 23°C 84% 29.98 in
(1015 mb)
Calm - 10SM
20:35
Clear
79°F / 26°C 73°F / 23°C 84% 29.98 in
(1015 mb)
Calm - 10SM
20:15
Clear
82°F / 28°C 75°F / 24°C 79% 29.98 in
(1015 mb)
Calm - 10SM
19:55
Clear
82°F / 28°C 73°F / 23°C 74% 29.95 in
(1014 mb)
Calm - 10SM
19:35
Clear
86°F / 30°C 73°F / 23°C 66% 29.95 in
(1014 mb)
Calm -
19:15
Clear
86°F / 30°C 73°F / 23°C 66% 29.95 in
(1014 mb)
Calm -
18:55
Clear
88°F / 31°C 73°F / 23°C 62% 29.95 in
(1014 mb)
S 3.5 mph
(S 6 kph)
-
18:35
Clear
90°F / 32°C 73°F / 23°C 59% 29.95 in
(1014 mb)
S 3.5 mph
(S 6 kph)
-
18:15
Clear
90°F / 32°C 73°F / 23°C 59% 29.95 in
(1014 mb)
S 4.6 mph
(S 7 kph)
-
17:55
Clear
90°F / 32°C 73°F / 23°C 59% 29.95 in
(1014 mb)
S 5.8 mph
(S 9 kph)
-
17:35
Clear
91°F / 33°C 73°F / 23°C 56% 29.95 in
(1014 mb)
S 5.8 mph
(S 9 kph)
-
17:15
Clear
91°F / 33°C 72°F / 22°C 52% 29.95 in
(1014 mb)
S 4.6 mph
(S 7 kph)
-
16:55
Clear
91°F / 33°C 72°F / 22°C 52% 29.95 in
(1014 mb)
S 5.8 mph
(S 9 kph)
-
16:35
Clear
93°F / 34°C 72°F / 22°C 49% 29.95 in
(1014 mb)
S 6.9 mph
(S 11 kph)
-
16:15
Clear
93°F / 34°C 72°F / 22°C 49% 29.95 in
(1014 mb)
S 6.9 mph
(S 11 kph)
-
15:55
Clear
93°F / 34°C 72°F / 22°C 49% 29.95 in
(1014 mb)
S 6.9 mph
(S 11 kph)
-
15:35
Clear
93°F / 34°C 72°F / 22°C 49% 29.95 in
(1014 mb)
S 6.9 mph
(S 11 kph)
-
15:15
Clear
95°F / 35°C 72°F / 22°C 47% 29.95 in
(1014 mb)
S 3.5 mph
(S 6 kph)
-
14:55
Clear
95°F / 35°C 72°F / 22°C 47% 29.95 in
(1014 mb)
SE 6.9 mph
(SE 11 kph)
-
14:35
Partly Cloudy
95°F / 35°C 72°F / 22°C 47% 29.95 in
(1014 mb)
SE 6.9 mph
(SE 11 kph)
-
14:15
Clear
93°F / 34°C 72°F / 22°C 49% 29.98 in
(1015 mb)
SSE 5.8 mph
(SSE 9 kph)
-
13:55
Clear
95°F / 35°C 72°F / 22°C 47% 29.98 in
(1015 mb)
SE 10.4 mph
(SE 17 kph)
-
13:35
Clear
95°F / 35°C 70°F / 21°C 44% 29.98 in
(1015 mb)
SE 6.9 mph
(SE 11 kph)
-
13:15
Clear
95°F / 35°C 72°F / 22°C 47% 29.98 in
(1015 mb)
SE 8.1 mph
(SE 13 kph)
-
12:55
Clear
93°F / 34°C 70°F / 21°C 47% 29.98 in
(1015 mb)
SE 5.8 mph
(SE 9 kph)
-
12:35
Clear
93°F / 34°C 72°F / 22°C 49% 30.01 in
(1016 mb)
S 4.6 mph
(S 7 kph)
- 10SM
12:15
Clear
91°F / 33°C 72°F / 22°C 52% 30.01 in
(1016 mb)
SE 6.9 mph
(SE 11 kph)
- 10SM
11:55
Clear
91°F / 33°C 73°F / 23°C 56% 30.01 in
(1016 mb)
ESE 4.6 mph
(ESE 7 kph)
- 10SM
11:35
Clear
91°F / 33°C 73°F / 23°C 56% 30.01 in
(1016 mb)
SE 4.6 mph
(SE 7 kph)
- 10SM
11:15
Clear
91°F / 33°C 73°F / 23°C 56% 30.01 in
(1016 mb)
SE 5.8 mph
(SE 9 kph)
- 10SM
10:55
Clear
90°F / 32°C 72°F / 22°C 55% 30.01 in
(1016 mb)
SE 3.5 mph
(SE 6 kph)
- 10SM
10:35
Clear
88°F / 31°C 73°F / 23°C 62% 30.01 in
(1016 mb)
SSE 3.5 mph
(SSE 6 kph)
- 10SM
10:15
Clear
90°F / 32°C 73°F / 23°C 59% 30.01 in
(1016 mb)
Calm - 10SM
09:55
Clear
86°F / 30°C 73°F / 23°C 66% 30.01 in
(1016 mb)
Calm - 10SM
09:35
Clear
86°F / 30°C 73°F / 23°C 66% 30.01 in
(1016 mb)
Calm - 10SM
09:15
Clear
84°F / 29°C 73°F / 23°C 70% 30.01 in
(1016 mb)
Calm - 10SM
08:55
Clear
82°F / 28°C 72°F / 22°C 70% 30.01 in
(1016 mb)
Calm - 10SM
08:35
Clear
82°F / 28°C 72°F / 22°C 70% 30.01 in
(1016 mb)
Calm - 10SM
08:15
Clear
81°F / 27°C 72°F / 22°C 74% 30.01 in
(1016 mb)
S 4.6 mph
(S 7 kph)
-
07:55
Clear
79°F / 26°C 72°F / 22°C 79% 30.01 in
(1016 mb)
S 4.6 mph
(S 7 kph)
-
07:35
Clear
79°F / 26°C 72°F / 22°C 79% 30.01 in
(1016 mb)
Calm -
07:15
Clear
77°F / 25°C 72°F / 22°C 83% 30.01 in
(1016 mb)
S 3.5 mph
(S 6 kph)
- 10SM
06:55
Clear
73°F / 23°C 72°F / 22°C 94% 30.01 in
(1016 mb)
Calm - 10SM
06:35
Fair
73°F / 23°C 72°F / 22°C 94% 30.01 in
(1016 mb)
Calm -
06:15
Fair
72°F / 22°C 72°F / 22°C 100% 29.98 in
(1015 mb)
Calm -
05:55
Clear
72°F / 22°C 72°F / 22°C 100% 29.98 in
(1015 mb)
Calm - 7SM
05:35
Clear
Fog And Mist
70°F / 21°C 70°F / 21°C 100% 29.98 in
(1015 mb)
Calm - 5SM
05:15
Clear
72°F / 22°C 70°F / 21°C 94% 29.98 in
(1015 mb)
Calm - 7SM
04:55
Fair
72°F / 22°C 70°F / 21°C 94% 29.98 in
(1015 mb)
Calm -
04:35
Fair
72°F / 22°C 72°F / 22°C 100% 29.98 in
(1015 mb)
Calm -
04:15
Fair
72°F / 22°C 72°F / 22°C 100% 29.98 in
(1015 mb)
Calm -
03:55
Clear
72°F / 22°C 72°F / 22°C 100% 29.98 in
(1015 mb)
Calm - 7SM
03:35
Fair
72°F / 22°C 72°F / 22°C 100% 29.98 in
(1015 mb)
Calm -
03:15
Fair
73°F / 23°C 72°F / 22°C 94% 29.98 in
(1015 mb)
Calm -
02:55
Clear
73°F / 23°C 72°F / 22°C 94% 29.98 in
(1015 mb)
Calm - 7SM
02:35
Fair
73°F / 23°C 72°F / 22°C 94% 29.98 in
(1015 mb)
S 3.5 mph
(S 6 kph)
-
02:15
Fair
73°F / 23°C 72°F / 22°C 94% 30.01 in
(1016 mb)
Calm -
01:55
Fair
73°F / 23°C 72°F / 22°C 94% 30.01 in
(1016 mb)
Calm -
01:35
Fair
73°F / 23°C 72°F / 22°C 94% 30.01 in
(1016 mb)
Calm -
01:15
Fair
73°F / 23°C 72°F / 22°C 94% 30.01 in
(1016 mb)
Calm -
00:55
Fair
75°F / 24°C 72°F / 22°C 89% 30.01 in
(1016 mb)
Calm -
00:35
Fair
75°F / 24°C 73°F / 23°C 94% 30.01 in
(1016 mb)
Calm -
00:15
Fair
75°F / 24°C 73°F / 23°C 94% 30.01 in
(1016 mb)
Calm -
Time Weather Temperature Dewpoint Humidity Pressure Winds Precip Visibility


Weather for websites

WeatherForYou.com, LLC is not responsible for any damages or problems caused by this service. Current weather conditions are obtained from the closest station including government and personal stations which may have varying degrees of accuracy. Weather forecasts are derived from the NOAA NDFD. Like all things, this site belongs to Jesus Christ... He just trusts us to maintain it. If you have any questions or comments email webmaster@weatherforyou.com

Copyright © 2016, WeatherForYou.com LLC. All rights reserved.